Starlink 31313

operational
NORAD ID: 59088 Int'l Des: 2024-041 Owner: SPXS Country: US Constellation: starlink
LEOCIRCULAR

关于 Starlink 31313

正在加载描述...

实时位置

正在加载3D地球...

即将过境

高度历史

Altitude vs Time

uPlot chart will show altitude changes over time

两行轨道根数

1 59088U 24041Q 25258.26207106 .00002662 00000-0 10619-3 0 9993
2 59088 42.9998 221.2915 0001778 270.3390 89.7258 15.27595648 87446
Epoch: Sep 15, 2025 • Age: 7 hours

当前状态

高度 491.0 km
速度 7.62 km/s
星下点 -32.18°S, 116.65°W
发射日期 Feb 29, 2024
运行时间 1.5 years
类型 internet

技术详情

分类 Payload
质量 730.00 kg
干质量 700.00 kg
总质量 730.00 kg
长度 0.30 m
直径 4.10 m
跨度 29.00 m
形状 Box + pan
制造商 SPXS
平台类型 Starlink V2M
阶段状态 In Orbit
所有者/国家 SPXS/US

大型星座

Loading constellations...